Погода в Макасе

Эквадор     2°18′44″S   78°06′32″W
темп.,
°C
ветер,
м/с
пор.,
м/с
влажн.,
%
обл.,
%
осадки,
мм/ч
давл.,
гПа
погр.,
м
15 мая, сб
сб1501:00+17юз119997 1.6 101526
04:00+17ююз119999 0.6 101321
07:00+17ю019993 1.2 101524
10:00+18ю1198100 0.8 1017152
13:00+18ссв0199100 2.0 1015147
16:00+18в01100100 9.6 101359
19:00+17ююз11100100 13.8 101536
22:00+17юз00100100 3.3 101747
16 мая, вс
вс1601:00+17ююз12100100 9.8 101688
04:00+17юз12100100 3.0 101479
07:00+16зюз12100100 11.8 101671
10:00+17юз129999 2.6 1018132
13:00+17ю1298100 3.1 1016120
16:00+17юз129892 0.8 101396
19:00+17юз119897 0.9 101536
22:00+17юз119883 0.3 101725
17 мая, пн
пн1701:00+16ююз119899 0.4 101646
04:00+16юз119978 0.1 101534
07:00+16юз1199100 2.3 101643
10:00+17юз1299100 3.5 1018128
13:00+17ююз12100100 7.4 1017126
16:00+17з0199100 3.2 101480
19:00+16зюз119888 3.3 101615
22:00+16юз1198100 0.0 101816
18 мая, вт
вт1801:00+16зюз1198100 0.2 101716
04:00+16ююз009894 0.1 101614
07:00+16зюз1199100 0.3 101823
10:00+17зюз0198100 0.2 101947
13:00+17з119999 0.9 101771
16:00+22ссв0170100 0.1 1012703
19:00+17сз119841 0.8 101515
22:00+16юз119832 0.4 101714
19 мая, ср
ср1901:00+16юз1193100 0.8 101619
04:00+16юз119664 0.2 101514
07:00+16юз119579 0.5 101754
10:00+22в117626 0.6 1016564
13:00+22в228499 2.3 1014617
16:00+21в119498 4.4 1011278
19:00+17с1199100 8.9 101415
22:00+17с0099100 3.4 101720